Location: Newark
(13.8117°N, 3.6025°W)
Time: 05:26:30
(UTC+00:00)

Vanguard 2 - Pass Details

Date: 31 August 2019
Orbit: 554 x 2937 km, 32.9° (Epoch: 22 September)

Event Time Altitude Azimuth Distance (km) Brightness Sun altitude
Rises 16:16:35 0° 303° (WNW) 4,008 12.0 30.6°
Reaches altitude 10° 16:18:52 10° 303° (WNW) 3,286 11.8 30.1°
Maximum altitude 16:27:34 86° 33° (NNE) 1,831 9.9 27.9°
Drops below altitude 10° 16:42:19 10° 122° (ESE) 5,288 11.4 24.4°
Sets 16:47:03 0° 122° (ESE) 6,533 11.8 23.2°
